FW7576 Weather Reports


time (UTC)temp
C
wind
direction
speed
KPH
gust
KPH
rain 1hr
cm
rain 24hr
cm
rain mn
cm
humidity
%
barometer
mb
20260505214536 13 319 9.7 25.7 0.00 0.00 0.00 32 1008.1
20260505213050 13 307 11.3 25.7 0.00 0.00 0.00 32 1008.2
20260505211535 13 203 4.8 17.7 0.00 0.00 0.00 33 1007.9
20260505210032 13 303 11.3 29.0 0.00 0.00 0.00 30 1008.1
20260505204540 13 294 8.0 25.7 0.00 0.00 0.00 32 1008.2
20260505203044 13 336 8.0 17.7 0.00 0.00 0.00 33 1008.4
20260505201537 13 265 9.7 29.0 0.00 0.00 0.00 33 1008.5
20260505200035 13 325 9.7 25.7 0.00 0.00 0.00 34 1008.5
20260505194540 12 279 8.0 20.9 0.00 0.00 0.00 34 1008.7
20260505193045 12 264 8.0 19.3 0.00 0.00 0.00 36 1008.6
20260505191544 12 298 12.9 24.1 0.00 0.00 0.00 36 1008.9
20260505190040 12 304 8.0 22.5 0.00 0.00 0.00 36 1008.7
20260505184540 12 272 6.4 20.9 0.00 0.00 0.00 37 1008.7
20260505183038 12 255 8.0 25.7 0.00 0.00 0.00 37 1008.6
20260505181539 12 297 9.7 25.7 0.00 0.00 0.00 34 1008.5
20260505180038 12 281 8.0 19.3 0.00 0.00 0.00 32 1008.2
20260505174535 12 243 11.3 24.1 0.00 0.00 0.00 37 1008.2
20260505173046 12 321 6.4 25.7 0.00 0.00 0.00 37 1008.5
20260505171539 12 229 14.5 24.1 0.00 0.00 0.00 37 1008.3
20260505170039 12 264 11.3 25.7 0.00 0.00 0.00 37 1008.0
20260505164549 11 283 11.3 30.6 0.00 0.00 0.00 36 1007.8
20260505163102 11 240 12.9 30.6 0.00 0.00 0.00 37 1008.4
20260505161544 11 62 6.4 27.4 0.00 0.00 0.00 41 1008.2
20260505153049 11 255 14.5 27.4 0.00 0.00 0.00 40 1008.0
20260505151543 11 243 11.3 24.1 0.00 0.00 0.00 41 1008.2
20260505124540 8 283 4.8 11.3 0.00 0.00 0.00 46 1008.7
20260505123037 8 288 6.4 12.9 0.00 0.00 0.00 48 1008.0
20260505121537 7 247 3.2 11.3 0.00 0.00 0.00 50 1008.7
20260505120040 7 257 4.8 8.0 0.00 0.00 0.00 49 1008.1
20260505114544 7 0 1.6 6.4 0.00 0.00 0.00 49 1007.5
20260505113037 7 355 0.0 3.2 0.00 0.00 0.00 50 1006.8
20260505111549 7 283 3.2 9.7 0.00 0.00 0.00 48 1007.3
20260505101539 7 295 4.8 14.5 0.00 0.00 0.00 46 1006.3
20260505100042 7 333 3.2 11.3 0.00 0.00 0.00 46 1005.9
20260505094536 8 310 4.8 16.1 0.00 0.00 0.00 46 1006.2
20260505093035 8 316 3.2 12.9 0.00 0.00 0.00 48 1006.3
20260505091551 8 288 4.8 14.5 0.00 0.00 0.00 47 1006.2
20260505090050 8 337 6.4 14.5 0.00 0.00 0.00 48 1005.7
20260505084536 8 330 4.8 9.7 0.00 0.00 0.00 48 1005.3
20260505083042 8 359 8.0 20.9 0.00 0.00 0.00 47 1005.1
20260505081550 9 4 6.4 14.5 0.00 0.00 0.00 48 1004.8
20260505080041 9 337 4.8 22.5 0.00 0.00 0.00 47 1004.2
20260505074559 10 328 9.7 17.7 0.00 0.00 0.00 46 1004.0
20260505073038 10 21 4.8 25.7 0.00 0.00 0.00 46 1004.0
20260505071536 10 338 4.8 17.7 0.00 0.00 0.00 47 1003.8
20260505070036 11 317 3.2 22.5 0.00 0.00 0.00 46 1003.5
20260505064537 11 327 8.0 27.4 0.00 0.00 0.00 45 1003.2
20260505063041 11 282 4.8 19.3 0.00 0.00 0.00 45 1003.1
20260505061601 12 321 9.7 24.1 0.00 0.00 0.00 44 1003.0
20260505060044 12 308 4.8 16.1 0.00 0.00 0.00 44 1003.1
20260505054541 13 12 6.4 19.3 0.00 0.00 0.00 42 1002.9
20260505053035 14 340 9.7 29.0 0.00 0.00 0.00 40 1002.4
20260505051541 14 302 6.4 14.5 0.00 0.00 0.00 37 1002.0
20260505041535 16 326 6.4 19.3 0.00 0.00 0.00 33 1000.7
20260505040041 16 11 9.7 19.3 0.00 0.00 0.00 32 1000.4
20260505034540 17 290 4.8 17.7 0.00 0.00 0.00 31 1000.5
20260505033046 17 286 6.4 17.7 0.00 0.00 0.00 31 1000.6
20260505031535 17 309 8.0 17.7 0.00 0.00 0.00 31 1000.4
20260505030036 17 270 9.7 25.7 0.00 0.00 0.00 32 1000.0
20260505024602 18 320 8.0 29.0 0.00 0.00 0.00 33 999.7
20260505023042 18 283 11.3 22.5 0.00 0.00 0.00 33 999.6
20260505021549 19 328 12.9 32.2 0.00 0.00 0.00 34 999.4
20260505020044 20 319 8.0 22.5 0.00 0.00 0.00 36 999.0
20260505014538 20 335 6.4 17.7 0.00 0.00 0.00 36 998.6
20260505013036 21 309 8.0 17.7 0.00 0.00 0.00 37 997.9
20260505011547 21 300 3.2 14.5 0.00 0.00 0.00 38 997.0
20260505010037 22 280 8.0 20.9 0.00 0.00 0.00 38 996.8
20260505004544 22 337 9.7 17.7 0.00 0.00 0.00 36 996.4
20260505003037 23 243 6.4 12.9 0.00 0.00 0.00 35 995.3
20260505001537 23 236 6.4 20.9 0.00 0.00 0.00 33 995.2
20260505000035 23 274 11.3 19.3 0.00 0.00 0.00 33 995.3
20260504234535 23 255 12.9 24.1 0.00 0.00 0.00 33 995.5
20260504233043 24 251 17.7 33.8 0.00 0.00 0.00 33 995.9
20260504231539 25 216 22.5 43.5 0.00 0.00 0.00 34 996.1
20260504230037 25 261 14.5 30.6 0.00 0.00 0.00 30 995.7
20260504224535 25 262 14.5 32.2 0.00 0.00 0.00 30 995.9
20260504223036 26 252 17.7 41.8 0.00 0.00 0.00 29 996.0
20260504221546 26 239 19.3 43.5 0.00 0.00 0.00 29 996.1
20260504220058 26 248 20.9 40.2 0.00 0.00 0.00 27 996.3